| time (UTC) | temp C | wind direction | speed KPH | gust KPH | rain 1hr cm | rain 24hr cm | rain mn cm | humidity % | barometer mb |
| 20260507085210 | 8 | 269 | 1.6 | 11.3 | 0.00 | 0.00 | 0.00 | 87 | 1005.0 |
| 20260507084708 | 9 | 234 | 1.6 | 11.3 | 0.00 | 0.00 | 0.00 | 88 | 1005.3 |
| 20260507084207 | 9 | 269 | 1.6 | 8.0 | 0.00 | 0.00 | 0.00 | 88 | 1005.3 |
| 20260507083707 | 9 | 271 | 1.6 | 8.0 | 0.00 | 0.00 | 0.00 | 88 | 1005.1 |
| 20260507083210 | 9 | 318 | 1.6 | 8.0 | 0.00 | 0.00 | 0.00 | 88 | 1005.0 |
| 20260507082710 | 9 | 234 | 1.6 | 8.0 | 0.00 | 0.00 | 0.00 | 88 | 1005.1 |
| 20260507082202 | 9 | 44 | 1.6 | 4.8 | 0.00 | 0.00 | 0.00 | 87 | 1005.0 |
| 20260507081203 | 10 | 248 | 3.2 | 11.3 | 0.00 | 0.00 | 0.00 | 86 | 1005.1 |
| 20260507080705 | 10 | 288 | 3.2 | 14.5 | 0.00 | 0.00 | 0.00 | 86 | 1005.2 |
| 20260507080202 | 10 | 272 | 3.2 | 14.5 | 0.00 | 0.00 | 0.00 | 85 | 1005.3 |
| 20260507075701 | 10 | 312 | 3.2 | 9.7 | 0.00 | 0.00 | 0.00 | 85 | 1004.9 |
| 20260507075150 | 10 | 205 | 4.8 | 11.3 | 0.00 | 0.00 | 0.00 | 85 | 1005.3 |
| 20260507074649 | 10 | 201 | 3.2 | 12.9 | 0.00 | 0.00 | 0.00 | 85 | 1005.2 |
| 20260507074151 | 10 | 329 | 3.2 | 12.9 | 0.00 | 0.00 | 0.00 | 85 | 1005.1 |
| 20260507073649 | 10 | 232 | 1.6 | 11.3 | 0.00 | 0.00 | 0.00 | 85 | 1005.0 |
| 20260507073147 | 10 | 101 | 3.2 | 11.3 | 0.00 | 0.00 | 0.00 | 85 | 1004.9 |
| 20260507072646 | 10 | 233 | 3.2 | 12.9 | 0.00 | 0.00 | 0.00 | 85 | 1004.6 |
| 20260507072147 | 10 | 339 | 3.2 | 12.9 | 0.00 | 0.00 | 0.00 | 86 | 1004.7 |
| 20260507071645 | 10 | 233 | 1.6 | 12.9 | 0.00 | 0.00 | 0.00 | 87 | 1004.7 |
| 20260507070644 | 10 | 274 | 3.2 | 11.3 | 0.00 | 0.00 | 0.00 | 87 | 1005.0 |
| 20260507070141 | 10 | 310 | 3.2 | 11.3 | 0.00 | 0.00 | 0.00 | 87 | 1004.5 |
| 20260507065639 | 10 | 248 | 3.2 | 12.9 | 0.00 | 0.00 | 0.00 | 87 | 1004.6 |
| 20260507065136 | 10 | 260 | 3.2 | 12.9 | 0.00 | 0.00 | 0.00 | 88 | 1004.6 |
| 20260507064637 | 10 | 267 | 3.2 | 11.3 | 0.00 | 0.00 | 0.00 | 88 | 1004.5 |
| 20260507064137 | 11 | 285 | 3.2 | 17.7 | 0.00 | 0.00 | 0.00 | 88 | 1004.6 |
| 20260507063635 | 11 | 250 | 1.6 | 17.7 | 0.00 | 0.00 | 0.00 | 88 | 1004.4 |
| 20260507063133 | 11 | 273 | 0.0 | 6.4 | 0.00 | 0.00 | 0.00 | 89 | 1004.3 |
| 20260507062627 | 11 | 271 | 1.6 | 8.0 | 0.00 | 0.00 | 0.00 | 89 | 1004.2 |
| 20260507062121 | 11 | 212 | 1.6 | 8.0 | 0.00 | 0.00 | 0.00 | 90 | 1004.5 |
| 20260507061624 | 11 | 243 | 0.0 | 8.0 | 0.00 | 0.00 | 0.00 | 90 | 1004.4 |
| 20260507061118 | 11 | 302 | 0.0 | 4.8 | 0.00 | 0.00 | 0.00 | 90 | 1004.4 |
| 20260507060117 | 11 | 281 | 1.6 | 11.3 | 0.00 | 0.00 | 0.00 | 90 | 1004.5 |
| 20260507055619 | 11 | 280 | 1.6 | 11.3 | 0.00 | 0.00 | 0.00 | 90 | 1004.6 |
| 20260507055119 | 11 | 282 | 1.6 | 9.7 | 0.00 | 0.00 | 0.00 | 91 | 1004.6 |
| 20260507054619 | 11 | 313 | 1.6 | 8.0 | 0.00 | 0.00 | 0.00 | 91 | 1004.7 |
| 20260507053621 | 11 | 293 | 1.6 | 8.0 | 0.00 | 0.00 | 0.00 | 90 | 1004.5 |
| 20260507053119 | 11 | 249 | 3.2 | 12.9 | 0.00 | 0.00 | 0.00 | 90 | 1004.7 |
| 20260507052615 | 11 | 212 | 1.6 | 12.9 | 0.00 | 0.00 | 0.00 | 90 | 1005.0 |
| 20260507051120 | 11 | 246 | 1.6 | 11.3 | 0.00 | 0.00 | 0.00 | 91 | 1004.7 |
| 20260507050615 | 12 | 308 | 1.6 | 11.3 | 0.00 | 0.00 | 0.00 | 91 | 1004.8 |
| 20260507045609 | 12 | 312 | 0.0 | 6.4 | 0.00 | 0.00 | 0.00 | 92 | 1004.7 |
| 20260507044557 | 12 | 307 | 1.6 | 8.0 | 0.00 | 0.00 | 0.00 | 91 | 1004.4 |
| 20260507044052 | 12 | 234 | 3.2 | 12.9 | 0.00 | 0.00 | 0.00 | 91 | 1004.5 |
| 20260507043547 | 12 | 273 | 3.2 | 14.5 | 0.00 | 0.00 | 0.00 | 91 | 1004.4 |
| 20260507043039 | 12 | 230 | 3.2 | 14.5 | 0.00 | 0.00 | 0.00 | 90 | 1004.5 |
| 20260507042534 | 12 | 230 | 3.2 | 12.9 | 0.00 | 0.00 | 0.00 | 90 | 1004.7 |
| 20260507042028 | 13 | 232 | 3.2 | 12.9 | 0.00 | 0.00 | 0.00 | 90 | 1004.7 |
| 20260507041520 | 13 | 265 | 3.2 | 9.7 | 0.00 | 0.00 | 0.00 | 91 | 1004.7 |
| 20260507041014 | 13 | 237 | 3.2 | 12.9 | 0.00 | 0.00 | 0.00 | 91 | 1004.6 |
| 20260507040509 | 13 | 208 | 1.6 | 12.9 | 0.00 | 0.00 | 0.00 | 92 | 1004.5 |
| 20260507040003 | 14 | 276 | 3.2 | 14.5 | 0.00 | 0.00 | 0.00 | 92 | 1004.3 |
| 20260507035457 | 14 | 332 | 4.8 | 14.5 | 0.00 | 0.00 | 0.00 | 92 | 1004.3 |
| 20260507034950 | 15 | 293 | 3.2 | 14.5 | 0.00 | 0.00 | 0.00 | 93 | 1004.2 |
| 20260507033937 | 15 | 311 | 1.6 | 8.0 | 0.00 | 0.00 | 0.00 | 94 | 1004.0 |
| 20260507033435 | 15 | 189 | 3.2 | 14.5 | 0.00 | 0.00 | 0.00 | 94 | 1003.9 |
| 20260507032927 | 15 | 212 | 3.2 | 14.5 | 0.00 | 0.00 | 0.00 | 94 | 1003.7 |
| 20260507032420 | 15 | 214 | 1.6 | 6.4 | 0.00 | 0.00 | 0.00 | 94 | 1003.6 |
| 20260507031914 | 15 | 252 | 3.2 | 16.1 | 0.00 | 0.00 | 0.00 | 94 | 1003.5 |
| 20260507031408 | 15 | 251 | 4.8 | 16.1 | 0.00 | 0.00 | 0.00 | 94 | 1003.4 |
| 20260507030901 | 15 | 180 | 3.2 | 9.7 | 0.00 | 0.00 | 0.00 | 93 | 1003.5 |
| 20260507030356 | 15 | 217 | 3.2 | 12.9 | 0.00 | 0.00 | 0.00 | 93 | 1003.3 |
| 20260507025343 | 15 | 205 | 4.8 | 12.9 | 0.00 | 0.00 | 0.00 | 93 | 1003.4 |
| 20260507024838 | 15 | 212 | 4.8 | 12.9 | 0.00 | 0.00 | 0.00 | 93 | 1003.4 |
| 20260507024333 | 15 | 248 | 4.8 | 16.1 | 0.00 | 0.00 | 0.00 | 93 | 1003.4 |
| 20260507023826 | 15 | 160 | 3.2 | 16.1 | 0.00 | 0.00 | 0.00 | 93 | 1003.5 |
| 20260507023320 | 15 | 188 | 3.2 | 11.3 | 0.00 | 0.00 | 0.00 | 93 | 1003.4 |
| 20260507022813 | 15 | 232 | 3.2 | 16.1 | 0.00 | 0.00 | 0.00 | 93 | 1003.4 |
| 20260507022308 | 15 | 214 | 4.8 | 16.1 | 0.00 | 0.00 | 0.00 | 93 | 1003.4 |
| 20260507021802 | 15 | 240 | 4.8 | 14.5 | 0.00 | 0.00 | 0.00 | 93 | 1003.3 |
| 20260507021257 | 15 | 162 | 4.8 | 14.5 | 0.00 | 0.00 | 0.00 | 93 | 1003.4 |
| 20260507020751 | 15 | 216 | 3.2 | 9.7 | 0.00 | 0.00 | 0.00 | 93 | 1003.4 |
| 20260507020245 | 15 | 212 | 3.2 | 9.7 | 0.00 | 0.00 | 0.00 | 93 | 1003.4 |
| 20260507015231 | 15 | 146 | 3.2 | 12.9 | 0.00 | 0.00 | 0.00 | 94 | 1003.6 |
| 20260507014726 | 15 | 212 | 3.2 | 9.7 | 0.00 | 0.00 | 0.00 | 94 | 1003.6 |
| 20260507014220 | 15 | 200 | 3.2 | 8.0 | 0.00 | 0.00 | 0.00 | 94 | 1003.6 |
| 20260507013714 | 15 | 169 | 4.8 | 16.1 | 0.00 | 0.00 | 0.00 | 94 | 1003.6 |
| 20260507013210 | 15 | 212 | 3.2 | 16.1 | 0.00 | 0.00 | 0.00 | 94 | 1003.7 |
| 20260507012704 | 15 | 157 | 3.2 | 16.1 | 0.00 | 0.00 | 0.00 | 94 | 1003.6 |
| 20260507011651 | 15 | 218 | 3.2 | 9.7 | 0.00 | 0.00 | 0.00 | 94 | 1003.7 |
| 20260507011147 | 15 | 168 | 3.2 | 9.7 | 0.00 | 0.00 | 0.00 | 94 | 1003.7 |
| 20260507010639 | 15 | 194 | 3.2 | 12.9 | 0.00 | 0.00 | 0.00 | 94 | 1003.8 |
| 20260507010132 | 15 | 205 | 4.8 | 12.9 | 0.00 | 0.00 | 0.00 | 94 | 1003.8 |
| 20260507005626 | 15 | 184 | 4.8 | 12.9 | 0.00 | 0.00 | 0.00 | 94 | 1003.8 |
| 20260507005120 | 15 | 193 | 3.2 | 12.9 | 0.00 | 0.00 | 0.00 | 94 | 1003.6 |
| 20260507004617 | 15 | 162 | 3.2 | 11.3 | 0.00 | 0.00 | 0.00 | 94 | 1003.7 |
| 20260507004107 | 15 | 155 | 1.6 | 6.4 | 0.00 | 0.00 | 0.00 | 94 | 1003.7 |
| 20260507003604 | 15 | 160 | 1.6 | 4.8 | 0.00 | 0.00 | 0.00 | 94 | 1003.8 |
| 20260507002550 | 15 | 151 | 3.2 | 11.3 | 0.00 | 0.00 | 0.00 | 94 | 1003.7 |
| 20260507002045 | 15 | 163 | 1.6 | 8.0 | 0.00 | 0.00 | 0.00 | 94 | 1003.7 |
| 20260507000538 | 15 | 210 | 3.2 | 6.4 | 0.00 | 0.00 | 0.00 | 94 | 1003.5 |
| 20260506235516 | 15 | 167 | 1.6 | 4.8 | 0.00 | 0.00 | 0.00 | 94 | 1003.4 |
| 20260506234019 | 15 | 157 | 1.6 | 6.4 | 0.00 | 0.00 | 0.00 | 94 | 1003.5 |
| 20260506233014 | 15 | 172 | 1.6 | 9.7 | 0.00 | 0.00 | 0.00 | 94 | 1003.5 |
| 20260506232527 | 15 | 198 | 1.6 | 9.7 | 0.00 | 0.00 | 0.00 | 94 | 1003.5 |
| 20260506231514 | 15 | 129 | 1.6 | 8.0 | 0.00 | 0.00 | 0.00 | 93 | 1003.8 |
| 20260506231015 | 15 | 322 | 1.6 | 6.4 | 0.00 | 0.00 | 0.00 | 93 | 1003.8 |
| 20260506230515 | 15 | 150 | 3.2 | 8.0 | 0.00 | 0.00 | 0.00 | 93 | 1003.8 |
| 20260506225513 | 15 | 163 | 3.2 | 9.7 | 0.00 | 0.00 | 0.00 | 93 | 1003.8 |
| 20260506225013 | 15 | 171 | 3.2 | 9.7 | 0.00 | 0.00 | 0.00 | 93 | 1003.8 |
| 20260506224017 | 15 | 181 | 3.2 | 6.4 | 0.00 | 0.00 | 0.00 | 93 | 1003.8 |
| 20260506223512 | 15 | 150 | 3.2 | 8.0 | 0.00 | 0.00 | 0.00 | 93 | 1004.0 |
| 20260506223012 | 15 | 164 | 1.6 | 12.9 | 0.00 | 0.00 | 0.00 | 93 | 1004.0 |
| 20260506222511 | 15 | 226 | 1.6 | 12.9 | 0.00 | 0.00 | 0.00 | 93 | 1004.0 |
| 20260506222012 | 15 | 179 | 0.0 | 4.8 | 0.00 | 0.00 | 0.00 | 93 | 1004.0 |
| 20260506221010 | 15 | 148 | 3.2 | 9.7 | 0.00 | 0.00 | 0.00 | 93 | 1004.1 |
| 20260506220511 | 15 | 195 | 3.2 | 9.7 | 0.00 | 0.00 | 0.00 | 92 | 1004.1 |
| 20260506220013 | 15 | 158 | 1.6 | 6.4 | 0.00 | 0.00 | 0.00 | 93 | 1004.2 |
| 20260506215511 | 16 | 141 | 1.6 | 6.4 | 0.00 | 0.00 | 0.00 | 92 | 1004.2 |
| 20260506215009 | 16 | 141 | 1.6 | 6.4 | 0.00 | 0.00 | 0.00 | 92 | 1004.3 |
| 20260506214508 | 16 | 212 | 1.6 | 8.0 | 0.00 | 0.00 | 0.00 | 92 | 1004.4 |
| 20260506214013 | 16 | 155 | 3.2 | 8.0 | 0.00 | 0.00 | 0.00 | 92 | 1004.3 |
| 20260506213511 | 16 | 141 | 3.2 | 8.0 | 0.00 | 0.00 | 0.00 | 92 | 1004.4 |
| 20260506213010 | 16 | 151 | 3.2 | 9.7 | 0.00 | 0.00 | 0.00 | 92 | 1004.5 |
| 20260506212510 | 16 | 149 | 3.2 | 9.7 | 0.00 | 0.00 | 0.00 | 92 | 1004.6 |
| 20260506212007 | 16 | 197 | 3.2 | 9.7 | 0.00 | 0.00 | 0.00 | 91 | 1004.6 |
| 20260506211505 | 16 | 142 | 4.8 | 9.7 | 0.00 | 0.00 | 0.00 | 91 | 1004.7 |
| 20260506210502 | 16 | 162 | 4.8 | 8.0 | 0.00 | 0.00 | 0.00 | 91 | 1004.7 |
| 20260506210004 | 16 | 163 | 3.2 | 11.3 | 0.00 | 0.00 | 0.00 | 91 | 1004.9 |
| 20260506204503 | 16 | 155 | 0.0 | 1.6 | 0.00 | 0.00 | 0.00 | 90 | 1004.8 |
| 20260506203459 | 17 | 147 | 0.0 | 4.8 | 0.00 | 0.00 | 0.00 | 89 | 1004.7 |
| 20260506202959 | 17 | 136 | 0.0 | 3.2 | 0.00 | 0.00 | 0.00 | 88 | 1004.8 |
| 20260506202458 | 17 | 146 | 0.0 | 3.2 | 0.00 | 0.00 | 0.00 | 88 | 1004.7 |
| 20260506201957 | 17 | 166 | 0.0 | 1.6 | 0.00 | 0.00 | 0.00 | 87 | 1004.8 |
| 20260506201457 | 17 | 145 | 0.0 | 1.6 | 0.00 | 0.00 | 0.00 | 86 | 1004.7 |
| 20260506200458 | 18 | 147 | 0.0 | 0.0 | 0.00 | 0.00 | 0.00 | 84 | 1004.6 |
| 20260506195455 | 18 | 146 | 1.6 | 11.3 | 0.00 | 0.00 | 0.00 | 81 | 1004.7 |
| 20260506194953 | 18 | 202 | 3.2 | 11.3 | 0.00 | 0.00 | 0.00 | 80 | 1004.6 |
| 20260506194450 | 18 | 160 | 3.2 | 8.0 | 0.00 | 0.00 | 0.00 | 79 | 1004.7 |
| 20260506193951 | 18 | 146 | 4.8 | 11.3 | 0.00 | 0.00 | 0.00 | 77 | 1004.7 |
| 20260506193450 | 19 | 142 | 3.2 | 11.3 | 0.00 | 0.00 | 0.00 | 75 | 1004.8 |
| 20260506192952 | 19 | 184 | 3.2 | 12.9 | 0.00 | 0.00 | 0.00 | 74 | 1004.9 |
| 20260506192451 | 19 | 151 | 4.8 | 14.5 | 0.00 | 0.00 | 0.00 | 72 | 1004.9 |
| 20260506191952 | 20 | 199 | 6.4 | 14.5 | 0.00 | 0.00 | 0.00 | 71 | 1004.8 |
| 20260506191452 | 20 | 217 | 6.4 | 19.3 | 0.00 | 0.00 | 0.00 | 70 | 1004.7 |
| 20260506190952 | 20 | 158 | 6.4 | 19.3 | 0.00 | 0.00 | 0.00 | 68 | 1004.7 |
| 20260506185953 | 20 | 174 | 1.6 | 11.3 | 0.00 | 0.00 | 0.00 | 67 | 1004.8 |
| 20260506185452 | 21 | 139 | 1.6 | 11.3 | 0.00 | 0.00 | 0.00 | 67 | 1004.8 |
| 20260506184950 | 21 | 153 | 1.6 | 9.7 | 0.00 | 0.00 | 0.00 | 67 | 1004.7 |
| 20260506184451 | 21 | 180 | 3.2 | 6.4 | 0.00 | 0.00 | 0.00 | 64 | 1004.6 |
| 20260506183952 | 21 | 141 | 4.8 | 9.7 | 0.00 | 0.00 | 0.00 | 63 | 1004.6 |
| 20260506182948 | 21 | 159 | 3.2 | 9.7 | 0.00 | 0.00 | 0.00 | 60 | 1004.6 |
| 20260506182448 | 22 | 153 | 4.8 | 17.7 | 0.00 | 0.00 | 0.00 | 60 | 1004.6 |
| 20260506181951 | 22 | 154 | 8.0 | 19.3 | 0.00 | 0.00 | 0.00 | 59 | 1004.7 |
| 20260506181450 | 22 | 141 | 4.8 | 19.3 | 0.00 | 0.00 | 0.00 | 59 | 1004.8 |
| 20260506180949 | 22 | 160 | 3.2 | 8.0 | 0.00 | 0.00 | 0.00 | 60 | 1005.0 |
| 20260506180448 | 22 | 145 | 3.2 | 9.7 | 0.00 | 0.00 | 0.00 | 60 | 1004.8 |
| 20260506175446 | 22 | 142 | 3.2 | 6.4 | 0.00 | 0.00 | 0.00 | 59 | 1005.1 |
| 20260506174948 | 22 | 105 | 3.2 | 9.7 | 0.00 | 0.00 | 0.00 | 59 | 1005.0 |
| 20260506174446 | 22 | 158 | 3.2 | 9.7 | 0.00 | 0.00 | 0.00 | 59 | 1005.0 |
| 20260506173948 | 22 | 134 | 3.2 | 9.7 | 0.00 | 0.00 | 0.00 | 58 | 1005.0 |
| 20260506172947 | 23 | 154 | 3.2 | 12.9 | 0.00 | 0.00 | 0.00 | 58 | 1005.1 |
| 20260506171942 | 22 | 119 | 1.6 | 8.0 | 0.00 | 0.00 | 0.00 | 59 | 1005.2 |
| 20260506171444 | 22 | 165 | 1.6 | 6.4 | 0.00 | 0.00 | 0.00 | 60 | 1005.2 |
| 20260506170943 | 22 | 84 | 0.0 | 9.7 | 0.00 | 0.00 | 0.00 | 62 | 1005.2 |
| 20260506170444 | 22 | 121 | 0.0 | 9.7 | 0.00 | 0.00 | 0.00 | 61 | 1005.3 |
| 20260506165943 | 22 | 122 | 0.0 | 6.4 | 0.00 | 0.00 | 0.00 | 62 | 1005.4 |
| 20260506165443 | 22 | 127 | 1.6 | 6.4 | 0.00 | 0.00 | 0.00 | 60 | 1005.4 |
| 20260506164944 | 22 | 142 | 3.2 | 14.5 | 0.00 | 0.00 | 0.00 | 59 | 1005.6 |
| 20260506163944 | 22 | 147 | 4.8 | 14.5 | 0.00 | 0.00 | 0.00 | 57 | 1005.6 |
| 20260506162938 | 22 | 224 | 3.2 | 16.1 | 0.00 | 0.00 | 0.00 | 59 | 1005.7 |
| 20260506162440 | 22 | 202 | 3.2 | 16.1 | 0.00 | 0.00 | 0.00 | 58 | 1005.7 |
| 20260506161941 | 22 | 212 | 3.2 | 11.3 | 0.00 | 0.00 | 0.00 | 59 | 1006.0 |
| 20260506161440 | 22 | 165 | 4.8 | 17.7 | 0.00 | 0.00 | 0.00 | 59 | 1006.0 |
| 20260506160942 | 22 | 146 | 3.2 | 17.7 | 0.00 | 0.00 | 0.00 | 59 | 1006.2 |
| 20260506155945 | 21 | 167 | 4.8 | 14.5 | 0.00 | 0.00 | 0.00 | 60 | 1006.4 |
| 20260506155443 | 21 | 151 | 4.8 | 14.5 | 0.00 | 0.00 | 0.00 | 60 | 1006.5 |
| 20260506154937 | 21 | 153 | 4.8 | 14.5 | 0.00 | 0.00 | 0.00 | 60 | 1006.6 |
| 20260506154437 | 21 | 169 | 6.4 | 20.9 | 0.00 | 0.00 | 0.00 | 61 | 1006.9 |
| 20260506153937 | 21 | 165 | 8.0 | 20.9 | 0.00 | 0.00 | 0.00 | 61 | 1007.0 |
| 20260506153435 | 21 | 156 | 8.0 | 19.3 | 0.00 | 0.00 | 0.00 | 61 | 1007.0 |
| 20260506152437 | 21 | 136 | 8.0 | 20.9 | 0.00 | 0.00 | 0.00 | 60 | 1007.2 |
| 20260506151936 | 22 | 146 | 6.4 | 20.9 | 0.00 | 0.00 | 0.00 | 60 | 1007.1 |
| 20260506151436 | 22 | 206 | 4.8 | 14.5 | 0.00 | 0.00 | 0.00 | 61 | 1007.1 |
| 20260506150936 | 21 | 124 | 8.0 | 17.7 | 0.00 | 0.00 | 0.00 | 62 | 1007.1 |
| 20260506150435 | 21 | 188 | 8.0 | 24.1 | 0.00 | 0.00 | 0.00 | 62 | 1007.3 |
| 20260506145435 | 21 | 226 | 6.4 | 24.1 | 0.00 | 0.00 | 0.00 | 63 | 1007.3 |
| 20260506144935 | 21 | 266 | 8.0 | 24.1 | 0.00 | 0.00 | 0.00 | 64 | 1007.2 |
| 20260506144437 | 21 | 91 | 8.0 | 20.9 | 0.00 | 0.00 | 0.00 | 63 | 1007.0 |
| 20260506143935 | 21 | 149 | 8.0 | 20.9 | 0.00 | 0.00 | 0.00 | 64 | 1007.1 |
| 20260506142936 | 21 | 206 | 4.8 | 11.3 | 0.00 | 0.00 | 0.00 | 65 | 1007.0 |
| 20260506142436 | 21 | 129 | 6.4 | 14.5 | 0.00 | 0.00 | 0.00 | 65 | 1006.8 |
| 20260506141434 | 20 | 223 | 4.8 | 22.5 | 0.00 | 0.00 | 0.00 | 66 | 1007.0 |
| 20260506140935 | 20 | 172 | 4.8 | 22.5 | 0.00 | 0.00 | 0.00 | 68 | 1007.1 |
| 20260506140437 | 20 | 144 | 4.8 | 9.7 | 0.00 | 0.00 | 0.00 | 68 | 1007.1 |
| 20260506135936 | 20 | 134 | 4.8 | 11.3 | 0.00 | 0.00 | 0.00 | 69 | 1007.1 |
| 20260506135435 | 20 | 213 | 4.8 | 11.3 | 0.00 | 0.00 | 0.00 | 69 | 1007.1 |
| 20260506134937 | 20 | 183 | 4.8 | 12.9 | 0.00 | 0.00 | 0.00 | 69 | 1007.3 |
| 20260506134436 | 20 | 130 | 4.8 | 12.9 | 0.00 | 0.00 | 0.00 | 69 | 1007.4 |
| 20260506133935 | 20 | 132 | 3.2 | 8.0 | 0.00 | 0.00 | 0.00 | 70 | 1007.6 |
| 20260506133435 | 19 | 237 | 3.2 | 12.9 | 0.00 | 0.00 | 0.00 | 70 | 1007.6 |
| 20260506132935 | 19 | 169 | 4.8 | 14.5 | 0.00 | 0.00 | 0.00 | 71 | 1007.7 |
| 20260506132437 | 19 | 223 | 4.8 | 14.5 | 0.00 | 0.00 | 0.00 | 71 | 1007.6 |
| 20260506131933 | 19 | 158 | 4.8 | 16.1 | 0.00 | 0.00 | 0.00 | 71 | 1007.6 |
| 20260506131446 | 18 | 158 | 4.8 | 19.3 | 0.00 | 0.00 | 0.00 | 72 | 1007.5 |
| 20260506130935 | 18 | 214 | 6.4 | 19.3 | 0.00 | 0.00 | 0.00 | 72 | 1007.5 |
| 20260506125932 | 18 | 134 | 8.0 | 19.3 | 0.00 | 0.00 | 0.00 | 71 | 1007.5 |
| 20260506125430 | 19 | 178 | 6.4 | 14.5 | 0.00 | 0.00 | 0.00 | 71 | 1007.6 |
| 20260506124930 | 18 | 174 | 4.8 | 14.5 | 0.00 | 0.00 | 0.00 | 72 | 1007.4 |
| 20260506124430 | 18 | 150 | 4.8 | 17.7 | 0.00 | 0.00 | 0.00 | 74 | 1007.5 |
| 20260506123926 | 18 | 207 | 6.4 | 17.7 | 0.00 | 0.00 | 0.00 | 74 | 1007.6 |
| 20260506123428 | 18 | 186 | 6.4 | 16.1 | 0.00 | 0.00 | 0.00 | 74 | 1007.8 |
| 20260506122926 | 18 | 193 | 6.4 | 17.7 | 0.00 | 0.00 | 0.00 | 74 | 1007.9 |
| 20260506122427 | 18 | 202 | 3.2 | 17.7 | 0.00 | 0.00 | 0.00 | 74 | 1007.7 |
| 20260506121926 | 18 | 213 | 1.6 | 8.0 | 0.00 | 0.00 | 0.00 | 75 | 1007.6 |
| 20260506121425 | 17 | 204 | 3.2 | 11.3 | 0.00 | 0.00 | 0.00 | 75 | 1007.6 |
| 20260506120922 | 17 | 196 | 4.8 | 20.9 | 0.00 | 0.00 | 0.00 | 76 | 1007.7 |
| 20260506120436 | 17 | 166 | 4.8 | 20.9 | 0.00 | 0.00 | 0.00 | 76 | 1007.9 |
| 20260506115921 | 17 | 137 | 3.2 | 8.0 | 0.00 | 0.00 | 0.00 | 76 | 1007.8 |
| 20260506115423 | 17 | 179 | 4.8 | 12.9 | 0.00 | 0.00 | 0.00 | 76 | 1007.9 |
| 20260506114920 | 17 | 195 | 3.2 | 12.9 | 0.00 | 0.00 | 0.00 | 76 | 1007.9 |
| 20260506114422 | 17 | 144 | 4.8 | 12.9 | 0.00 | 0.00 | 0.00 | 76 | 1008.0 |
| 20260506113921 | 17 | 141 | 4.8 | 12.9 | 0.00 | 0.00 | 0.00 | 76 | 1008.1 |
| 20260506112917 | 17 | 219 | 4.8 | 12.9 | 0.00 | 0.00 | 0.00 | 77 | 1008.0 |
| 20260506112414 | 17 | 162 | 4.8 | 12.9 | 0.00 | 0.00 | 0.00 | 77 | 1007.9 |
| 20260506111913 | 17 | 191 | 4.8 | 12.9 | 0.00 | 0.00 | 0.00 | 77 | 1007.9 |
| 20260506111412 | 17 | 200 | 4.8 | 12.9 | 0.00 | 0.00 | 0.00 | 78 | 1007.9 |
| 20260506110408 | 16 | 166 | 4.8 | 19.3 | 0.00 | 0.00 | 0.00 | 78 | 1008.1 |
| 20260506105909 | 16 | 211 | 4.8 | 19.3 | 0.00 | 0.00 | 0.00 | 78 | 1008.1 |
| 20260506105409 | 16 | 150 | 4.8 | 11.3 | 0.00 | 0.00 | 0.00 | 77 | 1008.1 |
| 20260506104910 | 16 | 146 | 3.2 | 9.7 | 0.00 | 0.00 | 0.00 | 77 | 1008.0 |
| 20260506104406 | 16 | 158 | 3.2 | 11.3 | 0.00 | 0.00 | 0.00 | 77 | 1008.0 |
| 20260506103907 | 16 | 204 | 3.2 | 11.3 | 0.00 | 0.00 | 0.00 | 77 | 1008.0 |
| 20260506103405 | 16 | 187 | 3.2 | 11.3 | 0.00 | 0.00 | 0.00 | 77 | 1008.0 |
| 20260506102905 | 16 | 180 | 3.2 | 14.5 | 0.00 | 0.00 | 0.00 | 77 | 1008.0 |
| 20260506101909 | 16 | 144 | 1.6 | 8.0 | 0.00 | 0.00 | 0.00 | 77 | 1008.0 |
| 20260506101409 | 16 | 157 | 3.2 | 9.7 | 0.00 | 0.00 | 0.00 | 76 | 1008.0 |
| 20260506100403 | 16 | 165 | 3.2 | 9.7 | 0.00 | 0.00 | 0.00 | 76 | 1007.9 |
| 20260506095903 | 16 | 205 | 1.6 | 9.7 | 0.00 | 0.00 | 0.00 | 77 | 1007.9 |
| 20260506095402 | 16 | 199 | 1.6 | 6.4 | 0.00 | 0.00 | 0.00 | 77 | 1007.8 |
| 20260506094858 | 16 | 150 | 1.6 | 11.3 | 0.00 | 0.00 | 0.00 | 77 | 1007.9 |
| 20260506094350 | 16 | 155 | 3.2 | 11.3 | 0.00 | 0.00 | 0.00 | 76 | 1008.0 |
| 20260506093844 | 16 | 182 | 3.2 | 9.7 | 0.00 | 0.00 | 0.00 | 76 | 1008.0 |
| 20260506093338 | 16 | 214 | 3.2 | 12.9 | 0.00 | 0.00 | 0.00 | 76 | 1008.0 |
| 20260506091822 | 16 | 217 | 3.2 | 14.5 | 0.00 | 0.00 | 0.00 | 75 | 1007.9 |
| 20260506091315 | 16 | 189 | 1.6 | 14.5 | 0.00 | 0.00 | 0.00 | 75 | 1007.9 |
| 20260506090302 | 16 | 171 | 4.8 | 17.7 | 0.00 | 0.00 | 0.00 | 74 | 1008.0 |